BAW511 LPFR-EGLL

Flight info

Callsign BAW511
Flight time 2h 18m
Altitude 36000
Route ELVAR DCT RODAP DCT BABOV DCT BARDI N873 DELOG DCT DEGEX DCT OZNOH DCT JSY/N0438F340 DCT REVTU UP87 ROXOG
Aircraft A320/M-SDE3FGIJ1KRWXY/SB1

Departure

Time 2026-05-06 19:08
Airport Faro - Gago Coutinho International Airport (LPFR)

Arrival

Time 2026-05-06 21:26
Airport London Heathrow Airport (EGLL)
Time Latitude Longitude Altitude Speed Heading
2026-05-06 19:07 37.01719 -7.98496 486 ft 135 kts 283°
2026-05-06 19:08 37.01896 -7.99661 1120 ft 137 kts 284°
2026-05-06 19:08 37.02087 -8.00920 1329 ft 161 kts 285°
2026-05-06 19:08 37.02307 -8.02392 1513 ft 184 kts 286°
2026-05-06 19:08 37.02555 -8.04055 1811 ft 202 kts 285°
2026-05-06 19:09 37.02811 -8.05803 2415 ft 206 kts 285°
2026-05-06 19:09 37.03064 -8.07575 3131 ft 208 kts 284°
2026-05-06 19:09 37.03327 -8.09394 3723 ft 216 kts 284°
2026-05-06 19:09 37.03712 -8.11243 4199 ft 228 kts 298°
2026-05-06 19:10 37.04754 -8.12820 4535 ft 248 kts 329°
2026-05-06 19:10 37.06427 -8.13452 5005 ft 261 kts
2026-05-06 19:10 37.08186 -8.12902 5773 ft 263 kts 21°
2026-05-06 19:10 37.09910 -8.12165 6625 ft 267 kts 20°
2026-05-06 19:11 37.11693 -8.11429 7386 ft 273 kts 19°
2026-05-06 19:11 37.13523 -8.10684 8131 ft 279 kts 18°
2026-05-06 19:11 37.15398 -8.09923 8866 ft 285 kts 18°
2026-05-06 19:11 37.17314 -8.09140 9613 ft 292 kts 17°
2026-05-06 19:12 37.19245 -8.08350 10185 ft 302 kts 17°
2026-05-06 19:12 37.21322 -8.07498 10403 ft 325 kts 17°
2026-05-06 19:12 37.23546 -8.06585 10631 ft 345 kts 17°
2026-05-06 19:12 37.25856 -8.05634 11140 ft 353 kts 17°
2026-05-06 19:13 37.28206 -8.04666 11794 ft 357 kts 17°
2026-05-06 19:13 37.30586 -8.03682 12369 ft 363 kts 16°
2026-05-06 19:13 37.33002 -8.02682 12975 ft 368 kts 17°
2026-05-06 19:13 37.35448 -8.01665 13604 ft 373 kts 16°
2026-05-06 19:14 37.37927 -8.00636 14124 ft 378 kts 17°
2026-05-06 19:14 37.40433 -7.99594 14713 ft 381 kts 17°
2026-05-06 19:14 37.42964 -7.98540 15243 ft 385 kts 17°
2026-05-06 19:14 37.45517 -7.97476 15843 ft 387 kts 17°
2026-05-06 19:15 37.48086 -7.96407 16403 ft 391 kts 17°
2026-05-06 19:15 37.50677 -7.95331 16957 ft 394 kts 17°
2026-05-06 19:15 37.53288 -7.94250 17520 ft 397 kts 17°
2026-05-06 19:15 37.55924 -7.93158 18071 ft 400 kts 17°
2026-05-06 19:16 37.58582 -7.92053 18574 ft 404 kts 17°
2026-05-06 19:16 37.61260 -7.90939 19074 ft 407 kts 17°
2026-05-06 19:16 37.63959 -7.89812 19579 ft 410 kts 17°
2026-05-06 19:16 37.66641 -7.88690 20065 ft 413 kts 17°
2026-05-06 19:17 37.69376 -7.87546 20556 ft 416 kts 16°
2026-05-06 19:17 37.72131 -7.86394 21045 ft 418 kts 16°
2026-05-06 19:17 37.74903 -7.85236 21511 ft 421 kts 16°
2026-05-06 19:17 37.77690 -7.84073 21960 ft 423 kts 16°
2026-05-06 19:18 37.80498 -7.82899 22405 ft 426 kts 16°
2026-05-06 19:18 37.83331 -7.81709 22845 ft 429 kts 16°
2026-05-06 19:18 37.86175 -7.80510 23290 ft 432 kts 16°
2026-05-06 19:18 37.89040 -7.79304 23672 ft 435 kts 16°
2026-05-06 19:19 37.91923 -7.78091 24043 ft 438 kts 16°
2026-05-06 19:19 37.94821 -7.76869 24417 ft 440 kts 16°
2026-05-06 19:19 37.97736 -7.75640 24771 ft 443 kts 16°
2026-05-06 19:19 38.00671 -7.74402 25128 ft 446 kts 16°
2026-05-06 19:20 38.03632 -7.73149 25471 ft 448 kts 16°
2026-05-06 19:20 38.06600 -7.71892 25794 ft 451 kts 16°
2026-05-06 19:20 38.09587 -7.70631 26140 ft 454 kts 16°
2026-05-06 19:20 38.12591 -7.69366 26471 ft 456 kts 16°
2026-05-06 19:21 38.15616 -7.68090 26813 ft 459 kts 16°
2026-05-06 19:21 38.18621 -7.66818 27130 ft 462 kts 16°
2026-05-06 19:21 38.21678 -7.65520 27471 ft 465 kts 16°
2026-05-06 19:21 38.24752 -7.64214 27807 ft 467 kts 16°
2026-05-06 19:22 38.27849 -7.62897 28137 ft 470 kts 16°
2026-05-06 19:22 38.30957 -7.61577 28461 ft 473 kts 15°
2026-05-06 19:22 38.34085 -7.60248 28777 ft 475 kts 15°
2026-05-06 19:22 38.37234 -7.58908 29105 ft 477 kts 15°
2026-05-06 19:23 38.40382 -7.57563 29591 ft 476 kts 15°
2026-05-06 19:23 38.43515 -7.56222 30068 ft 475 kts 16°
2026-05-06 19:23 38.46656 -7.54879 30446 ft 475 kts 15°
2026-05-06 19:23 38.49790 -7.53542 30826 ft 475 kts 15°
2026-05-06 19:24 38.52922 -7.52204 31224 ft 474 kts 15°
2026-05-06 19:24 38.56051 -7.50868 31622 ft 474 kts 15°
2026-05-06 19:24 38.59180 -7.49530 31845 ft 474 kts 15°
2026-05-06 19:24 38.62313 -7.48189 32179 ft 474 kts 15°
2026-05-06 19:25 38.65435 -7.46846 32627 ft 473 kts 15°
2026-05-06 19:25 38.68549 -7.45504 33054 ft 472 kts 15°
2026-05-06 19:25 38.71657 -7.44162 33458 ft 471 kts 15°
2026-05-06 19:25 38.74760 -7.42818 33877 ft 470 kts 15°
2026-05-06 19:26 38.77858 -7.41477 34221 ft 470 kts 15°
2026-05-06 19:26 38.80952 -7.40140 34565 ft 468 kts 15°
2026-05-06 19:26 38.84036 -7.38810 34905 ft 467 kts 15°
2026-05-06 19:26 38.87110 -7.37485 35240 ft 466 kts 15°
2026-05-06 19:27 38.90182 -7.36162 35595 ft 465 kts 15°
2026-05-06 19:27 38.93250 -7.34839 35825 ft 465 kts 15°
2026-05-06 19:27 38.96323 -7.33508 35880 ft 469 kts 15°
2026-05-06 19:28 39.02536 -7.30808 35884 ft 473 kts 15°
2026-05-06 19:28 39.08772 -7.28086 35877 ft 473 kts 15°
2026-05-06 19:29 39.14967 -7.25380 35879 ft 473 kts 15°
2026-05-06 19:29 39.21207 -7.22657 35878 ft 473 kts 15°
2026-05-06 19:30 39.27469 -7.20089 35871 ft 472 kts 13°
2026-05-06 19:30 39.33788 -7.17756 35869 ft 472 kts 12°
2026-05-06 19:31 39.40111 -7.15425 35886 ft 473 kts 13°
2026-05-06 19:31 39.49591 -7.11799 35881 ft 473 kts 13°
2026-05-06 19:32 39.55915 -7.09359 35883 ft 473 kts 13°
2026-05-06 19:32 39.62216 -7.06835 35891 ft 475 kts 19°
2026-05-06 19:33 39.68021 -7.02785 35885 ft 479 kts 29°
2026-05-06 19:33 39.73719 -6.98304 35881 ft 479 kts 28°
2026-05-06 19:34 39.79435 -6.93828 35868 ft 479 kts 28°
2026-05-06 19:34 39.85140 -6.89343 35886 ft 479 kts 29°
2026-05-06 19:35 39.90832 -6.84839 35876 ft 479 kts 29°
2026-05-06 19:35 39.96519 -6.80296 35874 ft 479 kts 29°
2026-05-06 19:36 40.02193 -6.75736 35892 ft 479 kts 29°
2026-05-06 19:36 40.07868 -6.71169 35900 ft 479 kts 29°
2026-05-06 19:37 40.13508 -6.66634 35899 ft 479 kts 29°
2026-05-06 19:37 40.18259 -6.62806 35897 ft 479 kts 29°
2026-05-06 19:38 40.24847 -6.57488 35900 ft 479 kts 29°
2026-05-06 19:38 40.30513 -6.52902 35919 ft 478 kts 29°
2026-05-06 19:39 40.36178 -6.48318 35913 ft 478 kts 29°
2026-05-06 19:39 40.41830 -6.43731 35906 ft 478 kts 29°
2026-05-06 19:40 40.47477 -6.39127 35909 ft 478 kts 29°
2026-05-06 19:40 40.53124 -6.34513 35919 ft 478 kts 29°
2026-05-06 19:41 40.58771 -6.29915 35921 ft 477 kts 28°
2026-05-06 19:41 40.64566 -6.25688 35922 ft 475 kts 24°
2026-05-06 19:42 40.70471 -6.21781 35919 ft 475 kts 24°
2026-05-06 19:42 40.76369 -6.17844 35938 ft 475 kts 25°
2026-05-06 19:43 40.81234 -6.14478 35931 ft 475 kts 25°
2026-05-06 19:43 40.87075 -6.10386 35934 ft 475 kts 25°
2026-05-06 19:44 40.92915 -6.06302 35931 ft 475 kts 25°
2026-05-06 19:44 40.98765 -6.02217 35950 ft 474 kts 25°
2026-05-06 19:45 41.04602 -5.98147 35944 ft 473 kts 25°
2026-05-06 19:45 41.10419 -5.94066 35939 ft 473 kts 25°
2026-05-06 19:46 41.16234 -5.89982 35940 ft 473 kts 25°
2026-05-06 19:46 41.22004 -5.85931 35956 ft 472 kts 26°
2026-05-06 19:47 41.27846 -5.81809 35951 ft 472 kts 26°
2026-05-06 19:47 41.33641 -5.77714 35947 ft 471 kts 26°
2026-05-06 19:48 41.39399 -5.73641 35946 ft 471 kts 26°
2026-05-06 19:48 41.45185 -5.69546 35954 ft 471 kts 26°
2026-05-06 19:49 41.50965 -5.65440 35954 ft 470 kts 26°
2026-05-06 19:49 41.56921 -5.61777 35955 ft 468 kts 20°
2026-05-06 19:50 41.62922 -5.58400 35953 ft 468 kts 20°
2026-05-06 19:50 41.68880 -5.55047 35968 ft 467 kts 20°
2026-05-06 19:51 41.74874 -5.51657 35962 ft 467 kts 21°
2026-05-06 19:51 41.80860 -5.48263 35962 ft 466 kts 21°
2026-05-06 19:52 41.86831 -5.44868 35969 ft 466 kts 21°
2026-05-06 19:52 41.92808 -5.41465 35970 ft 466 kts 21°
2026-05-06 19:53 41.98793 -5.38056 35977 ft 467 kts 21°
2026-05-06 19:53 42.04770 -5.34647 35964 ft 466 kts 21°
2026-05-06 19:54 42.10747 -5.31229 35974 ft 466 kts 21°
2026-05-06 19:54 42.16669 -5.27829 35981 ft 465 kts 21°
2026-05-06 19:55 42.22616 -5.24399 35982 ft 464 kts 21°
2026-05-06 19:55 42.28599 -5.20953 35982 ft 464 kts 21°
2026-05-06 19:56 42.34497 -5.17554 35985 ft 463 kts 21°
2026-05-06 19:56 42.40427 -5.14135 35982 ft 463 kts 21°
2026-05-06 19:57 42.46358 -5.10690 35986 ft 464 kts 21°
2026-05-06 19:57 42.52288 -5.07245 36001 ft 464 kts 21°
2026-05-06 19:58 42.58216 -5.03795 36000 ft 463 kts 21°
2026-05-06 19:58 42.64135 -5.00338 36015 ft 463 kts 21°
2026-05-06 19:59 42.70052 -4.96877 36022 ft 463 kts 21°
2026-05-06 19:59 42.75966 -4.93419 36025 ft 462 kts 21°
2026-05-06 20:00 42.81877 -4.89948 36029 ft 462 kts 21°
2026-05-06 20:00 42.87776 -4.86468 36037 ft 462 kts 21°
2026-05-06 20:01 42.93681 -4.82991 36052 ft 462 kts 21°
2026-05-06 20:01 42.99579 -4.79517 36048 ft 461 kts 21°
2026-05-06 20:02 43.05463 -4.76046 36050 ft 460 kts 21°
2026-05-06 20:02 43.11342 -4.72557 36052 ft 460 kts 21°
2026-05-06 20:03 43.17210 -4.69064 36058 ft 460 kts 21°
2026-05-06 20:03 43.23072 -4.65574 36056 ft 459 kts 21°
2026-05-06 20:04 43.28936 -4.62069 36056 ft 459 kts 21°
2026-05-06 20:04 43.34799 -4.58561 36069 ft 459 kts 21°
2026-05-06 20:05 43.40620 -4.55073 36063 ft 459 kts 21°
2026-05-06 20:05 43.46482 -4.51545 36056 ft 459 kts 21°
2026-05-06 20:06 43.52337 -4.48021 36051 ft 459 kts 21°
2026-05-06 20:06 43.58183 -4.44502 36059 ft 458 kts 21°
2026-05-06 20:07 43.64035 -4.40971 36055 ft 458 kts 21°
2026-05-06 20:07 43.69872 -4.37430 36052 ft 458 kts 21°
2026-05-06 20:08 43.75714 -4.33873 36058 ft 458 kts 22°
2026-05-06 20:08 43.81548 -4.30327 36054 ft 458 kts 22°
2026-05-06 20:09 43.87349 -4.26799 36051 ft 458 kts 22°
2026-05-06 20:09 43.93190 -4.23233 36046 ft 458 kts 22°
2026-05-06 20:10 43.99020 -4.19656 36052 ft 458 kts 22°
2026-05-06 20:10 44.04859 -4.16069 36051 ft 458 kts 22°
2026-05-06 20:11 44.10686 -4.12482 36045 ft 457 kts 22°
2026-05-06 20:11 44.16502 -4.08904 36059 ft 457 kts 22°
2026-05-06 20:12 44.22324 -4.05306 36056 ft 457 kts 22°
2026-05-06 20:12 44.28136 -4.01698 36052 ft 457 kts 22°
2026-05-06 20:13 44.34060 -3.98562 36049 ft 454 kts 11°
2026-05-06 20:13 44.40274 -3.97065 36048 ft 453 kts
2026-05-06 20:14 44.46448 -3.95652 36047 ft 453 kts
2026-05-06 20:14 44.52665 -3.94221 36047 ft 452 kts
2026-05-06 20:15 44.58880 -3.92786 36054 ft 453 kts
2026-05-06 20:15 44.65106 -3.91352 36055 ft 453 kts
2026-05-06 20:16 44.71335 -3.89916 36050 ft 453 kts
2026-05-06 20:16 44.77547 -3.88463 36049 ft 453 kts
2026-05-06 20:17 44.83766 -3.87015 36049 ft 453 kts
2026-05-06 20:17 44.89950 -3.85578 36049 ft 453 kts
2026-05-06 20:18 44.96171 -3.84130 36054 ft 453 kts
2026-05-06 20:18 45.02387 -3.82674 36049 ft 452 kts
2026-05-06 20:19 45.08596 -3.81222 36047 ft 452 kts
2026-05-06 20:19 45.14800 -3.79768 36057 ft 452 kts
2026-05-06 20:20 45.20998 -3.78298 36051 ft 451 kts
2026-05-06 20:20 45.27206 -3.76830 36049 ft 451 kts
2026-05-06 20:21 45.33404 -3.75376 36055 ft 451 kts
2026-05-06 20:21 45.39611 -3.73908 36047 ft 451 kts
2026-05-06 20:22 45.45806 -3.72435 36047 ft 451 kts
2026-05-06 20:22 45.51995 -3.70958 36056 ft 451 kts
2026-05-06 20:23 45.58192 -3.69476 36048 ft 451 kts
2026-05-06 20:23 45.64344 -3.68000 36050 ft 450 kts
2026-05-06 20:24 45.70517 -3.66516 36042 ft 450 kts
2026-05-06 20:24 45.75693 -3.65270 36049 ft 450 kts
2026-05-06 20:25 45.81864 -3.63786 36050 ft 450 kts
2026-05-06 20:25 45.87999 -3.62306 36040 ft 450 kts
2026-05-06 20:26 45.94176 -3.60810 36048 ft 449 kts
2026-05-06 20:26 46.00341 -3.59317 36048 ft 449 kts
2026-05-06 20:27 46.06503 -3.57826 36045 ft 449 kts
2026-05-06 20:27 46.12662 -3.56322 36050 ft 449 kts
2026-05-06 20:28 46.18821 -3.54821 36047 ft 448 kts
2026-05-06 20:28 46.24973 -3.53321 36045 ft 448 kts
2026-05-06 20:29 46.31125 -3.51811 36040 ft 449 kts
2026-05-06 20:29 46.37277 -3.50291 36043 ft 448 kts
2026-05-06 20:30 46.46503 -3.48018 36043 ft 448 kts
2026-05-06 20:31 46.52662 -3.46497 36045 ft 448 kts
2026-05-06 20:31 46.58820 -3.44973 36040 ft 448 kts
2026-05-06 20:32 46.64933 -3.43454 36038 ft 449 kts
2026-05-06 20:32 46.71086 -3.41925 36033 ft 448 kts
2026-05-06 20:33 46.77233 -3.40392 36031 ft 448 kts
2026-05-06 20:33 46.83381 -3.38856 36029 ft 448 kts
2026-05-06 20:34 46.89527 -3.37312 36028 ft 448 kts
2026-05-06 20:34 46.95680 -3.35763 36028 ft 448 kts
2026-05-06 20:35 47.01824 -3.34228 36022 ft 448 kts
2026-05-06 20:35 47.07965 -3.32687 36018 ft 447 kts
2026-05-06 20:36 47.14103 -3.31123 36017 ft 447 kts
2026-05-06 20:36 47.20243 -3.29563 36017 ft 448 kts
2026-05-06 20:37 47.26338 -3.28017 36018 ft 447 kts
2026-05-06 20:37 47.32476 -3.26459 36022 ft 447 kts
2026-05-06 20:38 47.38605 -3.24888 36023 ft 447 kts
2026-05-06 20:38 47.44729 -3.23313 36014 ft 447 kts
2026-05-06 20:39 47.50862 -3.21739 36021 ft 447 kts
2026-05-06 20:39 47.56993 -3.20163 36019 ft 447 kts
2026-05-06 20:40 47.63118 -3.18591 36018 ft 446 kts
2026-05-06 20:40 47.69197 -3.17010 36010 ft 447 kts
2026-05-06 20:41 47.75209 -3.14680 36017 ft 449 kts 22°
2026-05-06 20:41 47.80693 -3.10190 36019 ft 450 kts 29°
2026-05-06 20:42 47.86097 -3.05476 36015 ft 450 kts 29°
2026-05-06 20:42 47.91513 -3.00753 36017 ft 450 kts 29°
2026-05-06 20:43 47.96918 -2.96021 36018 ft 450 kts 29°
2026-05-06 20:43 48.02320 -2.91271 36023 ft 451 kts 29°
2026-05-06 20:44 48.07719 -2.86513 36026 ft 450 kts 29°
2026-05-06 20:44 48.13078 -2.81785 36025 ft 450 kts 29°
2026-05-06 20:45 48.18474 -2.77019 36023 ft 450 kts 29°
2026-05-06 20:45 48.23872 -2.72229 36027 ft 450 kts 29°
2026-05-06 20:46 48.29261 -2.67424 36022 ft 450 kts 29°
2026-05-06 20:46 48.34647 -2.62616 36019 ft 450 kts 29°
2026-05-06 20:47 48.40035 -2.57809 36023 ft 450 kts 29°
2026-05-06 20:47 48.45437 -2.53007 36024 ft 450 kts 26°
2026-05-06 20:48 48.51165 -2.49270 36022 ft 448 kts 21°
2026-05-06 20:48 48.56940 -2.45697 36032 ft 449 kts 21°
2026-05-06 20:49 48.62717 -2.42104 36037 ft 449 kts 21°
2026-05-06 20:49 48.68454 -2.38520 36037 ft 449 kts 21°
2026-05-06 20:50 48.74230 -2.34912 36037 ft 449 kts 21°
2026-05-06 20:50 48.80005 -2.31297 36035 ft 449 kts 21°
2026-05-06 20:51 48.85781 -2.27675 36034 ft 449 kts 21°
2026-05-06 20:51 48.91556 -2.24041 36036 ft 449 kts 21°
2026-05-06 20:52 48.97327 -2.20395 36040 ft 449 kts 21°
2026-05-06 20:52 49.03098 -2.16729 36044 ft 449 kts 21°
2026-05-06 20:53 49.08865 -2.13064 36053 ft 449 kts 21°
2026-05-06 20:53 49.14645 -2.09387 36048 ft 449 kts 21°
2026-05-06 20:54 49.20413 -2.05710 36047 ft 449 kts 21°
2026-05-06 20:54 49.25985 -2.01356 36029 ft 450 kts 27°
2026-05-06 20:55 49.31467 -1.96704 36030 ft 450 kts 27°
2026-05-06 20:55 49.36951 -1.92042 36034 ft 451 kts 27°
2026-05-06 20:56 49.42433 -1.87373 36035 ft 450 kts 27°
2026-05-06 20:56 49.47883 -1.82717 36038 ft 451 kts 27°
2026-05-06 20:57 49.53359 -1.78019 36051 ft 450 kts 27°
2026-05-06 20:57 49.58965 -1.73767 36045 ft 448 kts 17°
2026-05-06 20:58 49.65058 -1.72125 36042 ft 444 kts
2026-05-06 20:58 49.71237 -1.71628 36037 ft 445 kts
2026-05-06 20:59 49.77433 -1.71089 36036 ft 445 kts
2026-05-06 20:59 49.83621 -1.70544 36035 ft 446 kts
2026-05-06 21:00 49.89817 -1.70019 35769 ft 446 kts
2026-05-06 21:00 49.92884 -1.69763 35520 ft 445 kts
2026-05-06 21:00 49.95973 -1.69505 35283 ft 445 kts
2026-05-06 21:00 49.99070 -1.69161 34814 ft 447 kts
2026-05-06 21:01 50.02139 -1.68183 33993 ft 455 kts 15°
2026-05-06 21:01 50.05176 -1.66706 32984 ft 460 kts 15°
2026-05-06 21:01 50.08235 -1.65199 32107 ft 462 kts 16°
2026-05-06 21:01 50.11308 -1.63691 31436 ft 460 kts 15°
2026-05-06 21:02 50.14340 -1.62213 30903 ft 455 kts 15°
2026-05-06 21:02 50.17351 -1.60751 30320 ft 451 kts 15°
2026-05-06 21:02 50.20332 -1.59303 29687 ft 447 kts 15°
2026-05-06 21:02 50.23291 -1.57863 29108 ft 442 kts 15°
2026-05-06 21:03 50.26209 -1.56443 28542 ft 436 kts 15°
2026-05-06 21:03 50.29086 -1.55040 27989 ft 431 kts 15°
2026-05-06 21:03 50.31937 -1.53645 27435 ft 426 kts 15°
2026-05-06 21:03 50.34750 -1.52266 26888 ft 422 kts 15°
2026-05-06 21:04 50.37538 -1.50898 26353 ft 418 kts 15°
2026-05-06 21:04 50.40302 -1.49543 25824 ft 413 kts 15°
2026-05-06 21:04 50.43033 -1.48204 25316 ft 410 kts 15°
2026-05-06 21:04 50.45742 -1.46873 24808 ft 406 kts 15°
2026-05-06 21:05 50.48390 -1.45569 24344 ft 403 kts 15°
2026-05-06 21:05 50.51060 -1.44253 23859 ft 400 kts 16°
2026-05-06 21:05 50.53683 -1.42846 23378 ft 398 kts 21°
2026-05-06 21:05 50.56142 -1.40889 22906 ft 394 kts 27°
2026-05-06 21:06 50.58534 -1.38826 22450 ft 390 kts 27°
2026-05-06 21:06 50.60903 -1.36789 21990 ft 385 kts 27°
2026-05-06 21:06 50.63243 -1.34780 21537 ft 382 kts 27°
2026-05-06 21:06 50.65564 -1.32787 21089 ft 378 kts 27°
2026-05-06 21:07 50.67861 -1.30810 20619 ft 375 kts 27°
2026-05-06 21:07 50.70142 -1.28843 20148 ft 372 kts 27°
2026-05-06 21:07 50.72404 -1.26890 19671 ft 369 kts 27°
2026-05-06 21:07 50.74649 -1.24955 19172 ft 367 kts 27°
2026-05-06 21:08 50.76873 -1.23010 18703 ft 365 kts 29°
2026-05-06 21:08 50.79038 -1.20927 18195 ft 364 kts 31°
2026-05-06 21:08 50.81151 -1.18745 17672 ft 361 kts 32°
2026-05-06 21:08 50.83226 -1.16535 17187 ft 358 kts 33°
2026-05-06 21:09 50.85282 -1.14337 16696 ft 355 kts 32°
2026-05-06 21:09 50.87325 -1.12174 16212 ft 352 kts 32°
2026-05-06 21:09 50.89361 -1.10040 15718 ft 350 kts 32°
2026-05-06 21:09 50.91387 -1.07928 15223 ft 347 kts 32°
2026-05-06 21:10 50.93398 -1.05843 14760 ft 344 kts 32°
2026-05-06 21:10 50.94722 -1.04470 14452 ft 343 kts 32°
2026-05-06 21:10 50.96713 -1.02408 14008 ft 340 kts 32°
2026-05-06 21:10 50.98688 -1.00360 13546 ft 338 kts 32°
2026-05-06 21:11 51.00583 -0.98180 13049 ft 336 kts 40°
2026-05-06 21:11 51.02192 -0.95513 12572 ft 334 kts 47°
2026-05-06 21:11 51.03731 -0.92763 12109 ft 332 kts 47°
2026-05-06 21:11 51.05265 -0.90029 11640 ft 330 kts 47°
2026-05-06 21:12 51.06792 -0.87317 11210 ft 328 kts 47°
2026-05-06 21:12 51.08288 -0.84658 10784 ft 326 kts 47°
2026-05-06 21:12 51.09793 -0.81981 10362 ft 324 kts 47°
2026-05-06 21:12 51.11278 -0.79331 10126 ft 316 kts 47°
2026-05-06 21:13 51.12711 -0.76765 9998 ft 305 kts 47°
2026-05-06 21:13 51.14097 -0.74276 9872 ft 295 kts 47°
2026-05-06 21:13 51.15441 -0.71860 9659 ft 288 kts 47°
2026-05-06 21:13 51.16771 -0.69475 9340 ft 286 kts 47°
2026-05-06 21:14 51.18086 -0.67121 9009 ft 284 kts 47°
2026-05-06 21:14 51.19386 -0.64797 8828 ft 276 kts 47°
2026-05-06 21:14 51.20642 -0.62541 8700 ft 268 kts 47°
2026-05-06 21:14 51.21859 -0.60348 8566 ft 260 kts 47°
2026-05-06 21:15 51.23040 -0.58214 8433 ft 252 kts 46°
2026-05-06 21:15 51.24380 -0.56520 8246 ft 244 kts 21°
2026-05-06 21:15 51.26015 -0.56132 7972 ft 238 kts 350°
2026-05-06 21:15 51.27507 -0.57161 7673 ft 235 kts 320°
2026-05-06 21:16 51.28671 -0.59001 7357 ft 236 kts 312°
2026-05-06 21:16 51.29760 -0.60957 7070 ft 235 kts 311°
2026-05-06 21:16 51.30837 -0.62926 6793 ft 235 kts 311°
2026-05-06 21:16 51.31905 -0.64891 6519 ft 234 kts 311°
2026-05-06 21:17 51.32966 -0.66845 6258 ft 232 kts 311°
2026-05-06 21:17 51.34021 -0.68798 5995 ft 231 kts 311°
2026-05-06 21:17 51.35059 -0.70752 5731 ft 230 kts 311°
2026-05-06 21:17 51.36091 -0.72692 5582 ft 230 kts 311°
2026-05-06 21:18 51.37129 -0.74646 5455 ft 230 kts 310°
2026-05-06 21:18 51.37858 -0.76885 5320 ft 230 kts 285°
2026-05-06 21:18 51.38021 -0.79448 5189 ft 232 kts 272°
2026-05-06 21:18 51.38031 -0.82031 5079 ft 232 kts 271°
2026-05-06 21:19 51.38042 -0.84615 5004 ft 231 kts 276°
2026-05-06 21:19 51.38552 -0.87000 5010 ft 228 kts 308°
2026-05-06 21:19 51.39765 -0.88518 4969 ft 219 kts 340°
2026-05-06 21:19 51.41248 -0.88748 4734 ft 215 kts
2026-05-06 21:20 51.42732 -0.88365 4513 ft 216 kts 10°
2026-05-06 21:20 51.44178 -0.87899 4384 ft 208 kts 14°
2026-05-06 21:20 51.45389 -0.86762 4244 ft 202 kts 49°
2026-05-06 21:20 51.46151 -0.84916 4108 ft 196 kts 59°
2026-05-06 21:21 51.46798 -0.83009 3925 ft 191 kts 60°
2026-05-06 21:21 51.47389 -0.81158 3694 ft 185 kts 65°
2026-05-06 21:21 51.47587 -0.79133 3383 ft 185 kts 88°
2026-05-06 21:21 51.47598 -0.77073 3172 ft 185 kts 88°
2026-05-06 21:22 51.47610 -0.75040 3082 ft 183 kts 87°
2026-05-06 21:22 51.47621 -0.73064 3018 ft 171 kts 87°
2026-05-06 21:22 51.47633 -0.71179 2901 ft 167 kts 87°
2026-05-06 21:22 51.47644 -0.69336 2716 ft 164 kts 87°
2026-05-06 21:23 51.47654 -0.67537 2517 ft 155 kts 87°
2026-05-06 21:23 51.47663 -0.65872 2321 ft 144 kts 86°
2026-05-06 21:23 51.47672 -0.64290 2113 ft 140 kts 86°
2026-05-06 21:23 51.47680 -0.62736 1924 ft 139 kts 87°
2026-05-06 21:24 51.47687 -0.61194 1726 ft 138 kts 86°
2026-05-06 21:24 51.47696 -0.59663 1524 ft 137 kts 87°
2026-05-06 21:24 51.47700 -0.58134 1338 ft 137 kts 86°
2026-05-06 21:24 51.47706 -0.56606 1192 ft 137 kts 86°
2026-05-06 21:25 51.47712 -0.55079 972 ft 136 kts 86°
2026-05-06 21:25 51.47728 -0.53569 772 ft 135 kts 86°
2026-05-06 21:25 51.47736 -0.52066 576 ft 134 kts 87°
2026-05-06 21:25 51.47741 -0.50583 384 ft 132 kts 88°
2026-05-06 21:26 51.47746 -0.49110 221 ft 133 kts 88°
2026-05-06 21:26 51.47753 -0.47643 87 ft 125 kts 88°
2026-05-06 21:26 51.47757 -0.46502 91 ft 73 kts 90°
2026-05-06 21:26 51.47726 -0.46182 89 ft 14 kts 139°
2026-05-06 21:27 51.47651 -0.46084 87 ft 9 kts 149°
2026-05-06 21:27 51.47596 -0.46117 89 ft 11 kts 250°
2026-05-06 21:27 51.47594 -0.46249 86 ft 13 kts 270°
2026-05-06 21:27 51.47593 -0.46415 86 ft 16 kts 270°
2026-05-06 21:28 51.47593 -0.46615 86 ft 20 kts 270°
2026-05-06 21:28 51.47587 -0.46848 86 ft 22 kts 263°
2026-05-06 21:28 51.47583 -0.47112 86 ft 25 kts 271°
2026-05-06 21:28 51.47582 -0.47398 88 ft 24 kts 270°
2026-05-06 21:29 51.47581 -0.47658 87 ft 20 kts 269°
2026-05-06 21:29 51.47579 -0.47896 90 ft 23 kts 270°
2026-05-06 21:29 51.47579 -0.48106 89 ft 16 kts 269°
2026-05-06 21:29 51.47578 -0.48301 90 ft 19 kts 269°
2026-05-06 21:30 51.47571 -0.48454 88 ft 10 kts 240°
2026-05-06 21:30 51.47504 -0.48475 86 ft 11 kts 178°
2026-05-06 21:30 51.47427 -0.48474 86 ft 12 kts 179°
2026-05-06 21:30 51.47343 -0.48473 88 ft 13 kts 181°
2026-05-06 21:31 51.47247 -0.48473 86 ft 14 kts 179°
2026-05-06 21:31 51.47144 -0.48473 86 ft 15 kts 180°
2026-05-06 21:31 51.47034 -0.48471 89 ft 16 kts 180°
2026-05-06 21:31 51.46932 -0.48470 86 ft 12 kts 179°
2026-05-06 21:32 51.46881 -0.48507 87 ft 8 kts 242°
2026-05-06 21:32 51.46876 -0.48682 88 ft 4 kts 270°
2026-05-06 21:32 51.46881 -0.48708 86 ft 3 kts 305°
2026-05-06 21:33 51.46902 -0.48715 87 ft 4 kts 358°
2026-05-06 21:33 51.46921 -0.48715 87 ft 2 kts 360°
2026-05-06 21:33 51.46930 -0.48715 88 ft 0 kts 360°